Weather History for Rome, NY

Change the Weather History Date:

Friday, October 26, 2012

  Actual Average Record
Temperature  
Mean Temperature 63 °F -  
Max Temperature 69 °F 52 °F 76 °F (1991)
Min Temperature 57 °F 37 °F 24 °F (1987)
Degree Days  
Heating Degree Days 2    
Growing Degree Days 13 (Base 50)    
Moisture  
Dew Point 54 °F    
Average Humidity 75    
Maximum Humidity 87    
Minimum Humidity 61    
Precipitation  
Precipitation 0.00 in - - ()
Sea Level Pressure  
Sea Level Pressure 30.13 in    
Wind  
Wind Speed 9 mph (SE)    
Max Wind Speed 13 mph    
Max Gust Speed -    
Visibility 10 miles    
Events      
Averages and records for this station are not official NWS values.
T = Trace of Precipitation, MM = Missing Value Source: NWS Daily Summary

Daily Weather History Graph

Daily Weather History Graph

Search for Another Location

Airport:

Trip Planner

Search our weather history database for the weather conditions in past years. The results will help you decide how hot, cold, wet, or windy it might be!

Date:

Astronomy

Oct. 26, 2012 Rise Set
Actual Time 7:29 AM EDT 6:00 PM EDT
Civil Twilight 7:00 AM EDT 6:30 PM EDT
Nautical Twilight 6:26 AM EDT 7:03 PM EDT
Astronomical Twilight 5:53 AM EDT 7:36 PM EDT
Moon 4:18 PM EDT (10/26) 4:19 AM EDT (10/26)
Length of Visible Light 11h 29m
Length of Day
10h 31m
Waxing Gibbous, 91% of the Moon is Illuminated
Oct 26
Waxing Gibbous
Oct 29
Full
Nov 6
Last Quarter
Nov 13
New
Nov 20
First Quarter

Hourly Weather History & Observations

Time (EDT) Temp. Dew Point Humidity Pressure Visibility Wind Dir Wind Speed Gust Speed Precip Events Conditions
12:53 AM 57.9 °F 53.1 °F 84% 30.16 in 10.0 mi ESE 10.4 mph - N/A   Overcast
1:53 AM 57.9 °F 53.1 °F 84% 30.16 in 10.0 mi ESE 9.2 mph - N/A   Overcast
2:53 AM 57.9 °F 53.1 °F 84% 30.17 in 10.0 mi ESE 9.2 mph - N/A   Overcast
3:53 AM 57.9 °F 53.1 °F 84% 30.17 in 10.0 mi ESE 8.1 mph - N/A   Overcast
4:53 AM 57.9 °F 53.1 °F 84% 30.15 in 10.0 mi ESE 9.2 mph - N/A   Overcast
5:53 AM 57.9 °F 53.1 °F 84% 30.16 in 10.0 mi ESE 9.2 mph - N/A   Overcast
6:53 AM 57.0 °F 53.1 °F 87% 30.16 in 10.0 mi ESE 5.8 mph - N/A   Overcast
7:53 AM 57.9 °F 53.1 °F 84% 30.17 in 10.0 mi East 5.8 mph - N/A   Overcast
8:53 AM 57.9 °F 53.1 °F 84% 30.17 in 10.0 mi ESE 8.1 mph - N/A   Overcast
9:53 AM 60.1 °F 54.0 °F 80% 30.16 in 10.0 mi East 9.2 mph - N/A   Overcast
10:53 AM 63.0 °F 54.0 °F 72% 30.15 in 10.0 mi SE 10.4 mph - N/A   Mostly Cloudy
11:09 AM 64.9 °F 55.9 °F 73% 30.16 in 10.0 mi SE 9.2 mph - N/A   Scattered Clouds
11:17 AM 63.0 °F 55.0 °F 75% 30.16 in 10.0 mi ESE 11.5 mph - N/A   Mostly Cloudy
11:53 AM 64.9 °F 55.0 °F 70% 30.14 in 10.0 mi ESE 10.4 mph - N/A   Overcast
12:53 PM 68.0 °F 55.9 °F 65% 30.12 in 10.0 mi South 9.2 mph - N/A   Mostly Cloudy
1:02 PM 68.0 °F 55.9 °F 65% 30.13 in 10.0 mi SSE 10.4 mph - N/A   Scattered Clouds
1:53 PM 68.0 °F 55.9 °F 65% 30.10 in 10.0 mi South 12.7 mph - N/A   Partly Cloudy
2:53 PM 69.1 °F 55.0 °F 61% 30.09 in 10.0 mi South 10.4 mph - N/A   Clear
3:53 PM 69.1 °F 55.0 °F 61% 30.09 in 10.0 mi SSE 8.1 mph - N/A   Mostly Cloudy
4:53 PM 66.0 °F 54.0 °F 65% 30.09 in 10.0 mi SSW 8.1 mph - N/A   Overcast
5:53 PM 64.9 °F 54.0 °F 68% 30.09 in 10.0 mi SSE 6.9 mph - N/A   Overcast
6:53 PM 64.0 °F 54.0 °F 70% 30.10 in 10.0 mi SSE 3.5 mph - N/A   Overcast
7:53 PM 63.0 °F 54.0 °F 72% 30.11 in 10.0 mi Calm Calm - N/A   Overcast
8:53 PM 62.1 °F 54.0 °F 75% 30.11 in 10.0 mi ESE 5.8 mph - N/A   Overcast
9:53 PM 62.1 °F 54.0 °F 75% 30.12 in 10.0 mi ESE 3.5 mph - N/A   Overcast
11:53 PM 60.1 °F 54.0 °F 80% 30.11 in 10.0 mi ESE 3.5 mph - N/A   Overcast